This is the latest recevied weather packets stored in our database for station/object JA6CFI-13. If no packets are shown the sender has not sent any weather packets the latest 10 day(s).
| Time | Temp. | Humidity | Pressure | Rain* | Wind** | Luminosity | Snow |
|---|---|---|---|---|---|---|---|
| 1777766061 | 20° C | 72% | 1005 hPa | 0 mm | - | - | - |
| 1777765280 | 19.44° C | 72% | 1005.1 hPa | 0 mm | - | - | - |
| 1777764500 | 19.44° C | 72% | 1005.4 hPa | 0 mm | - | - | - |
| 1777763720 | 19.44° C | 72% | 1005.6 hPa | 0 mm | - | - | - |
| 1777762941 | 19.44° C | 70% | 1005.9 hPa | 0 mm | - | - | - |
| 1777762160 | 19.44° C | 67% | 1006 hPa | 0 mm | - | - | - |
| 1777761380 | 18.33° C | 70% | 1006.3 hPa | 0 mm | - | - | - |
| 1777760599 | 18.33° C | 72% | 1006.7 hPa | 0 mm | - | - | - |
| 1777759821 | 18.33° C | 72% | 1007.1 hPa | 0 mm | - | - | - |
| 1777759041 | 18.33° C | 71% | 1007 hPa | 0 mm | - | - | - |
| 1777758259 | 18.33° C | 76% | 1007.2 hPa | 0 mm | - | - | - |
| 1777757481 | 17.78° C | 77% | 1007.4 hPa | 0 mm | - | - | - |
| 1777756701 | 17.78° C | 77% | 1007.6 hPa | 0 mm | - | - | - |
| 1777755920 | 17.78° C | 76% | 1007.8 hPa | 0 mm | - | - | - |
| 1777755141 | 17.78° C | 76% | 1007.8 hPa | 0 mm | - | - | - |
| 1777754360 | 18.33° C | 76% | 1008.1 hPa | 0 mm | - | - | - |
| 1777753580 | 18.33° C | 76% | 1008.6 hPa | 0 mm | - | - | - |
| 1777752800 | 17.78° C | 75% | 1008.7 hPa | 0 mm | - | - | - |
| 1777752019 | 17.78° C | 75% | 1008.7 hPa | 0 mm | - | - | - |
| 1777751241 | 17.78° C | 75% | 1008.8 hPa | 0 mm | - | - | - |
| 1777750461 | 17.78° C | 74% | 1009.2 hPa | 0 mm | - | - | - |
| 1777749681 | 18.33° C | 73% | 1009.1 hPa | 0 mm | - | - | - |
| 1777748900 | 18.33° C | 72% | 1009 hPa | 0 mm | - | - | - |
| 1777748120 | 18.33° C | 73% | 1009 hPa | 0 mm | - | - | - |
| 1777747340 | 18.33° C | 74% | 1008.9 hPa | 0 mm | - | - | - |
* Rain latest hour (hover to see other rain measurements)
** Current wind speed in m/s (hover to see current wind gust speed)